• In Hungary
  • List of Countries
  • For 7 days
  • Water Temperature
  • Satellite Maps
  • Weather Map
  • News
  • Weather Widgets
  • user-avatar
    Login

    Hourly Weather Vol

    Today, 28 May, Monday

    Time Temperature Precipitation Wind Pressure Humidity
    00:00 +2°C° 0 mm 3 mps 741 mmHg 63%
    01:00 +2°C° 0 mm 3 mps 741 mmHg 66%
    02:00 +1°C° 0 mm 4 mps 741 mmHg 67%
    03:00 +1°C° 0 mm 4 mps 742 mmHg 67%
    04:00 +1°C° 0 mm 4 mps 742 mmHg 68%
    05:00 +1°C° 0 mm 5 mps 742 mmHg 66%
    06:00 +2°C° 0 mm 5 mps 742 mmHg 64%
    07:00 +3°C° 0 mm 6 mps 743 mmHg 62%
    08:00 +3°C° 0.1 mm 6 mps 743 mmHg 59%
    09:00 +4°C° 0.1 mm 6 mps 743 mmHg 56%
    10:00 +4°C° 0.1 mm 6 mps 744 mmHg 53%
    11:00 +4°C° 0.1 mm 6 mps 744 mmHg 51%
    12:00 +5°C° 0.1 mm 6 mps 745 mmHg 49%
    13:00 +5°C° 0.1 mm 6 mps 745 mmHg 47%
    14:00 +5°C° 0.1 mm 6 mps 746 mmHg 47%
    15:00 +7°C° 0.1 mm 6 mps 746 mmHg 47%
    16:00 +7°C° 0.1 mm 5 mps 746 mmHg 47%
    17:00 +6°C° 0 mm 5 mps 746 mmHg 48%
    18:00 +6°C° 0 mm 5 mps 746 mmHg 50%
    19:00 +6°C° 0 mm 4 mps 747 mmHg 51%
    20:00 +4°C° 0 mm 3 mps 746 mmHg 57%
    21:00 +4°C° 0 mm 2 mps 746 mmHg 63%
    22:00 +3°C° 0 mm 2 mps 746 mmHg 69%
    23:00 +3°C° 0 mm 2 mps 745 mmHg 70%

    Tomorrow, 29 May, Tuesday

    Time Temperature Precipitation Wind Pressure Humidity
    00:00 +2°C° 0 mm 2 mps 745 mmHg 72%
    01:00 +2°C° 0 mm 2 mps 744 mmHg 74%
    02:00 +2°C° 0.2 mm 2 mps 744 mmHg 77%
    03:00 +3°C° 0.2 mm 2 mps 743 mmHg 79%
    04:00 +2°C° 0.2 mm 3 mps 742 mmHg 82%
    05:00 +3°C° 0.3 mm 3 mps 742 mmHg 81%
    06:00 +4°C° 0.3 mm 4 mps 742 mmHg 80%
    07:00 +5°C° 0.3 mm 4 mps 741 mmHg 79%
    08:00 +6°C° 0.2 mm 4 mps 741 mmHg 75%
    09:00 +6°C° 0.2 mm 4 mps 741 mmHg 72%
    10:00 +7°C° 0.2 mm 4 mps 741 mmHg 69%
    11:00 +7°C° 0.1 mm 4 mps 741 mmHg 67%
    12:00 +7°C° 0.1 mm 4 mps 741 mmHg 66%
    13:00 +7°C° 0.1 mm 4 mps 741 mmHg 64%
    14:00 +9°C° 0.1 mm 3 mps 741 mmHg 62%
    15:00 +9°C° 0.1 mm 3 mps 741 mmHg 60%
    16:00 +9°C° 0.1 mm 3 mps 741 mmHg 59%
    17:00 +9°C° 0.1 mm 2 mps 741 mmHg 60%
    18:00 +9°C° 0.1 mm 2 mps 741 mmHg 61%
    19:00 +8°C° 0.1 mm 2 mps 740 mmHg 63%
    20:00 +8°C° 0 mm 1 mps 740 mmHg 70%
    21:00 +6°C° 0 mm 1 mps 740 mmHg 76%
    22:00 +4°C° 0 mm 0 mps 739 mmHg 83%
    23:00 +5°C° 0 mm 1 mps 739 mmHg 84%

    Day after tomorrow, 30 May, Wednesday

    Time Temperature Precipitation Wind Pressure Humidity
    00:00 +4°C° 0 mm 1 mps 738 mmHg 86%
    01:00 +4°C° 0 mm 1 mps 738 mmHg 88%
    02:00 +4°C° 0 mm 1 mps 737 mmHg 87%
    03:00 +4°C° 0 mm 1 mps 736 mmHg 86%
    04:00 +3°C° 0 mm 2 mps 735 mmHg 85%
    05:00 +4°C° 0.1 mm 2 mps 734 mmHg 83%
    06:00 +4°C° 0.1 mm 3 mps 733 mmHg 80%
    07:00 +4°C° 0.1 mm 3 mps 732 mmHg 78%
    08:00 +4°C° 0.6 mm 4 mps 731 mmHg 80%
    09:00 +4°C° 0.6 mm 4 mps 729 mmHg 82%
    10:00 +3°C° 0.6 mm 5 mps 728 mmHg 84%
    11:00 +5°C° 3 mm 5 mps 728 mmHg 86%
    12:00 +5°C° 3 mm 5 mps 727 mmHg 88%
    13:00 +5°C° 3 mm 5 mps 726 mmHg 90%
    14:00 +5°C° 1.4 mm 4 mps 726 mmHg 91%
    15:00 +5°C° 1.4 mm 4 mps 726 mmHg 91%
    16:00 +5°C° 1.4 mm 4 mps 726 mmHg 91%
    17:00 +5°C° 0.8 mm 4 mps 726 mmHg 91%
    18:00 +5°C° 0.8 mm 4 mps 726 mmHg 91%
    19:00 +3°C° 0.8 mm 5 mps 726 mmHg 91%
    20:00 +3°C° 1.1 mm 5 mps 726 mmHg 89%
    21:00 +3°C° 1.1 mm 6 mps 726 mmHg 88%
    22:00 +3°C° 1.1 mm 6 mps 727 mmHg 87%
    23:00 +2°C° 0.5 mm 6 mps 727 mmHg 86%

    31 May, Thursday

    Time Temperature Precipitation Wind Pressure Humidity
    00:00 +2°C° 0.5 mm 7 mps 727 mmHg 84%
    01:00 +2°C° 0.5 mm 7 mps 728 mmHg 83%
    02:00 0°C° 0.5 mm 7 mps 728 mmHg 84%
    03:00 0°C° 0.5 mm 7 mps 729 mmHg 85%
    04:00 -1°C° 0.5 mm 7 mps 729 mmHg 86%
    05:00 -1°C° 0.3 mm 7 mps 730 mmHg 86%
    06:00 -1°C° 0.3 mm 7 mps 731 mmHg 85%
    07:00 -1°C° 0.3 mm 7 mps 731 mmHg 85%
    08:00 -1°C° 0.1 mm 7 mps 732 mmHg 83%
    09:00 +1°C° 0.1 mm 6 mps 733 mmHg 81%
    10:00 +1°C° 0.1 mm 6 mps 734 mmHg 79%
    11:00 +2°C° 0.1 mm 6 mps 734 mmHg 75%
    12:00 +3°C° 0.1 mm 6 mps 735 mmHg 70%
    13:00 +4°C° 0.1 mm 6 mps 736 mmHg 65%
    14:00 +5°C° 0.1 mm 6 mps 736 mmHg 61%
    15:00 +7°C° 0.1 mm 6 mps 737 mmHg 57%
    16:00 +7°C° 0.1 mm 6 mps 737 mmHg 53%
    17:00 +7°C° 0 mm 5 mps 738 mmHg 52%
    18:00 +7°C° 0 mm 5 mps 738 mmHg 51%
    19:00 +6°C° 0 mm 4 mps 739 mmHg 51%
    20:00 +5°C° 0 mm 4 mps 739 mmHg 55%
    21:00 +3°C° 0 mm 4 mps 740 mmHg 60%
    22:00 +2°C° 0 mm 3 mps 740 mmHg 64%
    23:00 +1°C° 0 mm 3 mps 741 mmHg 67%

    1 June, Friday

    Time Temperature Precipitation Wind Pressure Humidity
    00:00 +1°C° 0 mm 3 mps 741 mmHg 70%
    01:00 0°C° 0 mm 3 mps 742 mmHg 73%
    02:00 0°C° 0 mm 3 mps 742 mmHg 74%
    03:00 0°C° 0 mm 3 mps 743 mmHg 76%
    04:00 0°C° 0 mm 3 mps 743 mmHg 77%
    05:00 0°C° 0 mm 3 mps 744 mmHg 73%
    06:00 +1°C° 0 mm 3 mps 744 mmHg 69%
    07:00 +2°C° 0 mm 3 mps 744 mmHg 65%
    08:00 +2°C° 0.1 mm 3 mps 745 mmHg 61%
    09:00 +3°C° 0.1 mm 4 mps 745 mmHg 58%
    10:00 +3°C° 0.1 mm 4 mps 745 mmHg 54%
    11:00 +4°C° 0 mm 4 mps 745 mmHg 53%
    12:00 +4°C° 0 mm 4 mps 746 mmHg 51%
    13:00 +4°C° 0 mm 4 mps 746 mmHg 49%
    14:00 +5°C° 0 mm 4 mps 746 mmHg 49%
    15:00 +5°C° 0 mm 4 mps 746 mmHg 49%
    16:00 +5°C° 0 mm 3 mps 746 mmHg 48%
    17:00 +5°C° 0 mm 3 mps 747 mmHg 49%
    18:00 +4°C° 0 mm 3 mps 747 mmHg 51%
    19:00 +4°C° 0 mm 3 mps 747 mmHg 52%
    20:00 +3°C° 0 mm 3 mps 747 mmHg 58%
    21:00 +3°C° 0 mm 2 mps 747 mmHg 65%
    22:00 +1°C° 0 mm 2 mps 747 mmHg 71%
    23:00 +1°C° 0 mm 2 mps 747 mmHg 74%

    2 June, Saturday

    Time Temperature Precipitation Wind Pressure Humidity
    00:00 -1°C° 0 mm 2 mps 747 mmHg 77%
    01:00 0°C° 0 mm 1 mps 747 mmHg 80%
    02:00 -2°C° 0 mm 2 mps 747 mmHg 79%
    03:00 -2°C° 0 mm 2 mps 747 mmHg 78%
    04:00 -1°C° 0 mm 2 mps 747 mmHg 77%
    05:00 +1°C° 0 mm 2 mps 747 mmHg 72%
    06:00 +2°C° 0 mm 3 mps 747 mmHg 66%
    07:00 +4°C° 0 mm 3 mps 746 mmHg 60%
    08:00 +5°C° 0 mm 3 mps 746 mmHg 59%
    09:00 +7°C° 0 mm 4 mps 746 mmHg 58%
    10:00 +8°C° 0 mm 4 mps 745 mmHg 57%
    11:00 +10°C° 0.1 mm 4 mps 745 mmHg 56%
    12:00 +11°C° 0.1 mm 4 mps 745 mmHg 55%
    13:00 +12°C° 0.1 mm 4 mps 744 mmHg 54%
    14:00 +13°C° 0 mm 4 mps 744 mmHg 51%
    15:00 +14°C° 0 mm 5 mps 743 mmHg 48%
    16:00 +15°C° 0 mm 5 mps 743 mmHg 45%
    17:00 +15°C° 0 mm 4 mps 742 mmHg 47%
    18:00 +16°C° 0 mm 3 mps 742 mmHg 49%
    19:00 +16°C° 0 mm 2 mps 742 mmHg 51%
    20:00 +14°C° 0 mm 3 mps 741 mmHg 55%
    21:00 +12°C° 0 mm 3 mps 741 mmHg 59%
    22:00 +11°C° 0 mm 3 mps 741 mmHg 63%
    23:00 +11°C° 0 mm 3 mps 740 mmHg 64%
    Show more